📊 Raw Sensor Data
Showing records 51376 to 51400 of 85,147 total
| ID | Distance (ft) | Battery V | Battery A | Int Temp (°F) | Int Humid (%) | Ext Temp (°F) | Solar V | RSSI | SNR | Time Stamp |
|---|---|---|---|---|---|---|---|---|---|---|
| 33784 | 14.8 | 4.05 | 9 | 57 | 42 | 56 | 4.50 | -74 | 8 | 03/01/2025 05:15 PM |
| 33783 | 14.8 | 3.98 | 11 | 58 | 42 | 56 | 4.50 | -73 | 8 | 03/01/2025 05:00 PM |
| 33782 | 14.9 | 3.99 | 6 | 62 | 40 | 59 | 5.10 | -74 | 8 | 03/01/2025 04:45 PM |
| 33781 | 14.8 | 3.99 | 6 | 61 | 42 | 59 | 5.10 | -72 | 7 | 03/01/2025 04:30 PM |
| 33780 | 14.8 | 3.98 | 6 | 62 | 43 | 59 | 5.10 | -72 | 8 | 03/01/2025 04:15 PM |
| 33779 | 15.0 | 3.98 | 6 | 65 | 41 | 61 | 5.10 | -73 | 7 | 03/01/2025 04:00 PM |
| 33778 | 14.9 | 4.13 | 6 | 67 | 41 | 60 | 5.10 | -71 | 8 | 03/01/2025 03:45 PM |
| 33777 | 14.9 | 3.98 | 6 | 71 | 40 | 62 | 5.10 | -76 | 8 | 03/01/2025 03:30 PM |
| 33776 | 15.0 | 3.98 | 6 | 75 | 37 | 66 | 5.10 | -73 | 8 | 03/01/2025 03:00 PM |
| 33775 | 14.9 | 3.98 | 0 | 76 | 36 | 68 | 5.10 | -75 | 8 | 03/01/2025 02:30 PM |
| 33774 | 14.9 | 4.02 | 0 | 74 | 36 | 66 | 5.10 | -73 | 8 | 03/01/2025 02:15 PM |
| 33773 | 15.0 | 3.98 | 6 | 75 | 36 | 66 | 5.10 | -74 | 7 | 03/01/2025 02:00 PM |
| 33772 | 15.0 | 3.98 | 6 | 75 | 35 | 67 | 5.10 | -74 | 7 | 03/01/2025 01:45 PM |
| 33771 | 14.9 | 4.13 | 6 | 72 | 36 | 66 | 5.10 | -72 | 8 | 03/01/2025 01:30 PM |
| 33770 | 14.9 | 4.11 | 6 | 68 | 39 | 63 | 5.10 | -75 | 7 | 03/01/2025 01:15 PM |
| 33769 | 14.9 | 3.97 | 6 | 70 | 37 | 62 | 5.10 | -73 | 7 | 03/01/2025 01:00 PM |
| 33768 | 15.0 | 3.97 | 0 | 73 | 36 | 65 | 5.10 | -73 | 7 | 03/01/2025 12:45 PM |
| 33767 | 15.0 | 3.97 | 6 | 72 | 36 | 65 | 5.10 | -73 | 8 | 03/01/2025 12:30 PM |
| 33766 | 14.9 | 3.97 | 6 | 71 | 35 | 65 | 5.10 | -74 | 8 | 03/01/2025 12:15 PM |
| 33765 | 15.0 | 3.97 | 6 | 70 | 36 | 65 | 5.10 | -73 | 8 | 03/01/2025 12:00 PM |
| 33764 | 15.0 | 3.97 | 5 | 69 | 36 | 63 | 5.10 | -74 | 8 | 03/01/2025 11:45 AM |
| 33763 | 15.0 | 3.97 | 0 | 68 | 36 | 64 | 5.10 | -75 | 7 | 03/01/2025 11:30 AM |
| 33762 | 15.0 | 3.97 | 6 | 68 | 35 | 64 | 5.10 | -73 | 7 | 03/01/2025 11:15 AM |
| 33761 | 15.0 | 3.97 | 0 | 66 | 35 | 63 | 5.10 | -74 | 7 | 03/01/2025 11:00 AM |
| 33760 | 15.0 | 4.03 | 6 | 65 | 35 | 63 | 5.10 | -74 | 8 | 03/01/2025 10:45 AM |